Hourly Weather Dili

Today, 25 October, Sunday

Time Temperature Precipitation Wind Pressure Humidity
00:00 +26°C° 0 mm 0 mps 753 mmHg 93%
01:00 +26°C° 0 mm 0 mps 752 mmHg 92%
02:00 +25°C° 0 mm 0 mps 752 mmHg 92%
03:00 +25°C° 0 mm 0 mps 752 mmHg 90%
04:00 +25°C° 0 mm 0 mps 752 mmHg 88%
05:00 +27°C° 0 mm 1 mps 753 mmHg 87%
06:00 +29°C° 0 mm 1 mps 753 mmHg 75%
07:00 +32°C° 0 mm 1 mps 754 mmHg 63%
08:00 +35°C° 0 mm 1 mps 754 mmHg 51%
09:00 +36°C° 0 mm 1 mps 754 mmHg 47%
10:00 +37°C° 0 mm 1 mps 753 mmHg 43%
11:00 +39°C° 0 mm 2 mps 753 mmHg 39%
12:00 +39°C° 0.2 mm 2 mps 752 mmHg 41%
13:00 +39°C° 0.2 mm 1 mps 751 mmHg 44%
14:00 +37°C° 0.2 mm 1 mps 751 mmHg 47%
15:00 +36°C° 0.5 mm 1 mps 751 mmHg 55%
16:00 +34°C° 0.5 mm 1 mps 751 mmHg 63%
17:00 +32°C° 0.5 mm 1 mps 751 mmHg 70%
18:00 +31°C° 0.3 mm 1 mps 751 mmHg 77%
19:00 +30°C° 0.3 mm 1 mps 752 mmHg 84%
20:00 +29°C° 0.3 mm 1 mps 752 mmHg 91%
21:00 +28°C° 0 mm 1 mps 752 mmHg 92%
22:00 +28°C° 0 mm 1 mps 752 mmHg 93%
23:00 +26°C° 0 mm 0 mps 752 mmHg 94%

Tomorrow, 26 October, Monday

Time Temperature Precipitation Wind Pressure Humidity
00:00 +28°C° 0 mm 1 mps 752 mmHg 94%
01:00 +27°C° 0 mm 1 mps 751 mmHg 93%
02:00 +27°C° 0 mm 1 mps 751 mmHg 93%
03:00 +27°C° 0 mm 1 mps 751 mmHg 89%
04:00 +27°C° 0 mm 1 mps 751 mmHg 85%
05:00 +27°C° 0 mm 1 mps 752 mmHg 81%
06:00 +29°C° 0 mm 1 mps 752 mmHg 71%
07:00 +32°C° 0 mm 1 mps 752 mmHg 61%
08:00 +34°C° 0 mm 1 mps 753 mmHg 51%
09:00 +35°C° 0 mm 1 mps 752 mmHg 46%
10:00 +38°C° 0 mm 2 mps 752 mmHg 42%
11:00 +39°C° 0 mm 2 mps 752 mmHg 37%
12:00 +38°C° 0.2 mm 2 mps 751 mmHg 42%
13:00 +37°C° 0.2 mm 1 mps 750 mmHg 46%
14:00 +36°C° 0.2 mm 1 mps 750 mmHg 50%
15:00 +34°C° 0.6 mm 1 mps 750 mmHg 59%
16:00 +33°C° 0.6 mm 1 mps 750 mmHg 68%
17:00 +31°C° 0.6 mm 1 mps 750 mmHg 77%
18:00 +30°C° 0.6 mm 1 mps 751 mmHg 82%
19:00 +30°C° 0.6 mm 1 mps 751 mmHg 86%
20:00 +29°C° 0.6 mm 1 mps 752 mmHg 91%
21:00 +28°C° 0.2 mm 1 mps 752 mmHg 92%
22:00 +28°C° 0.2 mm 1 mps 752 mmHg 93%
23:00 +27°C° 0.2 mm 1 mps 752 mmHg 94%

Day after tomorrow, 27 October, Tuesday

Time Temperature Precipitation Wind Pressure Humidity
00:00 +27°C° 0 mm 1 mps 752 mmHg 92%
01:00 +27°C° 0 mm 1 mps 751 mmHg 89%
02:00 +27°C° 0 mm 1 mps 751 mmHg 87%
03:00 +27°C° 0 mm 1 mps 751 mmHg 84%
04:00 +27°C° 0 mm 1 mps 751 mmHg 81%
05:00 +27°C° 0 mm 1 mps 751 mmHg 77%
06:00 +29°C° 0 mm 1 mps 752 mmHg 69%
07:00 +31°C° 0 mm 1 mps 752 mmHg 61%
08:00 +33°C° 0 mm 1 mps 753 mmHg 53%
09:00 +35°C° 0 mm 1 mps 752 mmHg 49%
10:00 +37°C° 0 mm 2 mps 752 mmHg 45%
11:00 +39°C° 0 mm 2 mps 752 mmHg 40%
12:00 +38°C° 0.2 mm 2 mps 751 mmHg 44%
13:00 +37°C° 0.2 mm 2 mps 751 mmHg 48%
14:00 +36°C° 0.2 mm 1 mps 750 mmHg 51%
15:00 +35°C° 0.6 mm 2 mps 750 mmHg 60%
16:00 +34°C° 0.6 mm 2 mps 750 mmHg 69%
17:00 +31°C° 0.6 mm 2 mps 750 mmHg 78%
18:00 +30°C° 0.5 mm 2 mps 751 mmHg 83%
19:00 +29°C° 0.5 mm 3 mps 752 mmHg 88%
20:00 +28°C° 0.5 mm 3 mps 752 mmHg 93%
21:00 +28°C° 0.2 mm 2 mps 752 mmHg 91%
22:00 +27°C° 0.2 mm 2 mps 753 mmHg 89%
23:00 +27°C° 0.2 mm 2 mps 753 mmHg 87%

28 October, Wednesday

Time Temperature Precipitation Wind Pressure Humidity
00:00 +27°C° 0 mm 2 mps 752 mmHg 85%
01:00 +27°C° 0 mm 2 mps 752 mmHg 83%
02:00 +26°C° 0 mm 2 mps 752 mmHg 81%
03:00 +26°C° 0 mm 2 mps 752 mmHg 77%
04:00 +26°C° 0 mm 1 mps 752 mmHg 73%
05:00 +26°C° 0 mm 1 mps 753 mmHg 69%
06:00 +28°C° 0 mm 1 mps 753 mmHg 63%
07:00 +31°C° 0 mm 1 mps 754 mmHg 57%
08:00 +33°C° 0 mm 1 mps 754 mmHg 51%
09:00 +34°C° 0 mm 1 mps 754 mmHg 48%
10:00 +37°C° 0 mm 2 mps 753 mmHg 44%
11:00 +38°C° 0 mm 2 mps 753 mmHg 41%
12:00 +38°C° 0.1 mm 2 mps 752 mmHg 42%
13:00 +38°C° 0.1 mm 2 mps 752 mmHg 44%
14:00 +38°C° 0.1 mm 2 mps 751 mmHg 45%
15:00 +36°C° 0.2 mm 2 mps 751 mmHg 52%
16:00 +34°C° 0.2 mm 2 mps 751 mmHg 60%
17:00 +32°C° 0.2 mm 2 mps 751 mmHg 67%
18:00 +31°C° 0.1 mm 2 mps 752 mmHg 73%
19:00 +29°C° 0.1 mm 2 mps 753 mmHg 79%
20:00 +28°C° 0.1 mm 2 mps 753 mmHg 85%
21:00 +28°C° 0.1 mm 2 mps 753 mmHg 81%
22:00 +28°C° 0.1 mm 2 mps 753 mmHg 77%
23:00 +28°C° 0.1 mm 2 mps 753 mmHg 73%

29 October, Thursday

Time Temperature Precipitation Wind Pressure Humidity
00:00 +27°C° 0 mm 2 mps 753 mmHg 73%
01:00 +27°C° 0 mm 2 mps 752 mmHg 74%
02:00 +27°C° 0 mm 1 mps 752 mmHg 75%
03:00 +27°C° 0 mm 1 mps 752 mmHg 74%
04:00 +27°C° 0 mm 1 mps 752 mmHg 74%
05:00 +27°C° 0 mm 1 mps 752 mmHg 73%
06:00 +29°C° 0 mm 1 mps 753 mmHg 63%
07:00 +32°C° 0 mm 1 mps 753 mmHg 54%
08:00 +34°C° 0 mm 1 mps 754 mmHg 45%
09:00 +36°C° 0 mm 2 mps 754 mmHg 43%
10:00 +37°C° 0 mm 2 mps 753 mmHg 41%
11:00 +38°C° 0 mm 2 mps 753 mmHg 39%
12:00 +37°C° 0.2 mm 2 mps 752 mmHg 45%
13:00 +36°C° 0.2 mm 2 mps 752 mmHg 51%
14:00 +35°C° 0.2 mm 2 mps 751 mmHg 57%
15:00 +34°C° 0.9 mm 2 mps 751 mmHg 65%
16:00 +32°C° 0.9 mm 2 mps 751 mmHg 73%
17:00 +31°C° 0.9 mm 2 mps 751 mmHg 80%
18:00 +30°C° 1.1 mm 2 mps 752 mmHg 83%
19:00 +29°C° 1.1 mm 2 mps 752 mmHg 86%
20:00 +29°C° 1.1 mm 2 mps 753 mmHg 89%
21:00 +28°C° 0.6 mm 1 mps 753 mmHg 89%
22:00 +28°C° 0.6 mm 1 mps 753 mmHg 90%
23:00 +26°C° 0.6 mm 0 mps 753 mmHg 90%

30 October, Friday

Time Temperature Precipitation Wind Pressure Humidity
00:00 +25°C° 0 mm 0 mps 752 mmHg 90%
01:00 +27°C° 0 mm 1 mps 752 mmHg 89%
02:00 +27°C° 0 mm 1 mps 752 mmHg 89%
03:00 +27°C° 0 mm 1 mps 752 mmHg 86%
04:00 +27°C° 0 mm 1 mps 752 mmHg 83%
05:00 +27°C° 0 mm 1 mps 752 mmHg 80%
06:00 +29°C° 0 mm 1 mps 752 mmHg 70%
07:00 +31°C° 0 mm 1 mps 752 mmHg 60%
08:00 +34°C° 0 mm 1 mps 753 mmHg 50%
09:00 +35°C° 0 mm 1 mps 752 mmHg 48%
10:00 +36°C° 0 mm 1 mps 752 mmHg 45%
11:00 +38°C° 0 mm 2 mps 752 mmHg 42%
12:00 +37°C° 0.4 mm 1 mps 751 mmHg 47%
13:00 +36°C° 0.4 mm 1 mps 751 mmHg 52%
14:00 +35°C° 0.4 mm 1 mps 750 mmHg 57%
15:00 +34°C° 0.5 mm 1 mps 750 mmHg 64%
16:00 +33°C° 0.5 mm 1 mps 750 mmHg 72%
17:00 +31°C° 0.5 mm 1 mps 750 mmHg 79%
18:00 +30°C° 0.6 mm 1 mps 751 mmHg 82%
19:00 +29°C° 0.6 mm 1 mps 751 mmHg 85%
20:00 +28°C° 0.6 mm 1 mps 752 mmHg 89%
21:00 +28°C° 0 mm 1 mps 752 mmHg 86%
22:00 +28°C° 0 mm 1 mps 752 mmHg 84%
23:00 +28°C° 0 mm 1 mps 752 mmHg 82%
Show more